Probability
8 12 14 13 9 5 2 0 0 0 0 0 0 1 1 1 2 3 3 3 1 0 0 0 0 0 0 0 0 0 0 0 0 0 0 0 0 0 0 0 0 1 1
10 12 14 13 10 7 4 1 1 1 0 0 1 2 3 2 3 3 3 3 2 1 0 0 0 0 0 0 0 0 0 0 0 0 0 0 0 0 0 0 0 1 3
13 12 12 12 11 9 7 4 3 2 1 1 2 4 5 5 4 4 3 3 2 1 0 0 0 0 0 0 0 0 0 0 0 0 0 0 0 1 2 1 0 1 2
16 13 12 13 11 10 10 8 5 4 3 3 3 4 5 6 6 5 4 3 2 1 0 0 0 0 0 0 0 0 0 0 0 0 0 0 2 4 3 1 1 0 1
16 15 17 18 15 12 11 10 8 6 6 5 4 4 5 6 6 6 5 3 2 0 0 0 0 0 0 0 0 1 1 0 0 0 0 1 4 7 6 3 2 2 1
15 17 23 26 22 15 12 11 9 7 7 6 4 4 5 5 5 5 5 4 3 2 1 1 0 1 1 0 0 1 1 1 0 0 0 2 8 11 9 6 5 4 4
18 20 26 31 28 20 15 11 8 6 6 5 5 5 6 5 4 4 4 5 5 4 3 2 2 2 1 1 1 1 2 2 1 0 1 5 14 18 14 9 7 7 7
25 25 26 29 28 25 21 15 10 6 5 6 7 8 8 6 4 4 4 4 4 4 3 3 3 3 2 2 2 2 2 2 2 0 1 9 22 26 20 12 10 9 9
30 28 25 23 24 24 23 19 13 11 10 10 10 10 9 7 5 4 4 3 2 3 3 4 4 5 4 3 3 3 2 2 1 0 2 13 28 33 26 19 14 12 12
32 29 25 22 20 18 18 16 15 16 15 14 12 11 9 6 4 4 5 5 4 4 4 5 6 6 6 4 3 3 2 1 0 0 4 17 33 37 30 24 18 16 15
35 32 28 24 18 13 12 15 16 16 15 14 13 12 9 6 4 4 6 8 7 6 6 6 6 6 6 5 4 3 2 1 1 2 8 22 33 35 29 24 19 17 16
40 37 31 26 20 13 15 20 19 17 16 14 13 13 11 8 6 6 10 12 9 6 6 7 7 7 7 6 5 5 5 2 2 4 13 25 30 29 26 22 21 18 17
44 41 34 29 24 21 23 26 24 22 22 17 15 18 16 13 13 16 18 17 12 9 10 10 10 11 9 7 5 5 5 3 2 5 16 27 29 25 22 21 23 23 23
48 45 39 34 34 35 34 32 30 28 26 22 20 22 23 21 22 25 26 23 19 19 19 18 15 14 11 8 5 4 4 4 5 9 19 29 30 24 21 20 21 24 25
53 51 45 41 43 46 43 38 34 33 31 28 26 26 28 28 27 26 25 24 23 26 27 23 17 14 12 10 7 6 6 8 12 15 21 29 30 25 21 19 18 19 20
57 55 50 45 45 47 45 40 37 36 36 35 34 33 33 32 28 25 22 22 23 24 25 22 16 13 13 12 10 10 11 13 16 19 21 25 27 24 22 20 18 16 16
58 58 53 45 44 47 46 43 39 39 37 39 41 39 36 34 31 27 24 22 21 22 22 18 14 12 12 12 12 13 14 15 15 16 17 18 21 22 24 23 20 16 15
58 58 53 46 45 49 48 46 45 43 41 43 46 44 38 34 32 30 29 25 23 23 21 16 12 10 9 10 12 14 16 17 16 14 13 14 17 21 22 21 19 15 12
58 57 52 46 46 47 47 47 48 47 46 48 49 45 37 31 29 29 29 26 25 24 21 16 13 11 9 9 10 11 13 16 17 15 13 13 16 19 16 14 14 11 8
54 53 50 47 46 45 44 45 47 48 48 49 48 43 35 28 26 25 24 22 20 20 18 15 13 12 12 12 9 8 9 12 16 17 15 13 14 14 11 10 10 7 5
49 48 47 47 47 46 44 44 45 46 45 45 43 38 30 25 23 21 19 17 14 13 13 13 12 12 13 13 11 8 6 8 12 16 15 11 10 9 8 10 11 8 6
48 46 44 46 47 46 44 43 43 41 39 38 37 32 25 21 19 16 15 15 12 10 9 9 10 10 11 13 13 9 6 7 10 12 12 10 8 8 8 10 11 10 8
47 45 43 45 46 45 43 42 39 37 34 33 32 28 23 18 15 14 13 14 13 11 8 8 10 11 12 13 13 11 9 8 7 7 8 7 7 7 7 8 9 9 8
42 41 42 44 44 43 41 39 37 34 32 31 30 27 22 16 13 12 12 12 13 12 10 9 10 12 12 13 14 13 12 9 4 3 4 4 5 5 5 5 5 5 5
37 38 40 42 41 40 38 37 35 33 31 30 28 25 20 14 11 10 10 10 10 10 10 10 10 10 10 11 13 15 14 9 3 1 1 3 3 3 3 3 2 2 2
37 37 39 40 38 37 37 36 34 33 30 29 27 22 17 12 10 9 8 8 8 9 9 10 9 9 8 8 11 14 13 8 3 1 1 2 3 3 3 2 1 0 0
Wind_Speed
13 14 14 13 12 11 10 11 11 11 10 10 9 9 9 9 8 9 9 8 8 7 7 6 5 5 5 5 6 6 6 6 6 6 7 7 7 7 6 6 5 6 10
17 15 14 13 12 11 11 11 11 10 10 9 9 8 8 8 7 7 7 7 6 6 6 5 5 4 4 4 4 4 4 3 3 3 4 4 5 5 6 6 7 7 9
17 15 14 13 13 12 11 11 11 10 10 9 9 8 7 7 6 6 6 5 5 5 5 5 4 4 3 3 3 2 2 1 1 2 3 3 5 7 6 7 9 8 8
16 14 14 14 13 12 11 11 10 10 10 9 8 8 7 6 5 5 5 4 4 4 3 3 3 3 2 2 1 1 1 3 4 6 6 4 6 10 8 7 7 7 6
14 14 15 14 13 12 12 11 10 10 9 9 8 7 6 6 5 4 4 3 3 3 2 2 2 2 1 0 1 2 3 5 7 9 7 3 5 12 11 8 7 6 6
15 15 15 14 13 12 11 10 10 9 9 8 7 6 6 5 4 3 3 3 2 2 2 1 1 0 0 1 2 3 5 7 9 8 6 2 6 11 11 9 7 6 6
15 15 15 14 13 12 11 10 9 9 8 7 6 6 5 4 4 3 2 2 2 1 0 0 0 1 2 3 4 5 7 9 9 9 5 2 8 12 11 9 7 6 6
15 15 14 14 13 12 11 9 8 8 7 6 5 5 5 4 4 3 2 2 1 1 1 1 2 3 3 4 5 6 8 11 9 9 3 2 9 12 11 9 8 7 6
15 15 13 12 12 12 11 9 8 7 7 6 5 5 5 5 4 4 3 2 2 2 2 2 3 4 5 6 6 7 9 11 10 7 5 3 9 10 9 9 8 8 7
12 12 12 11 11 10 9 10 9 8 7 6 6 5 5 5 6 5 4 3 3 3 3 4 5 6 6 7 8 9 10 10 9 7 2 3 8 8 7 7 7 8 8
11 10 10 10 9 8 9 9 9 8 7 6 6 6 5 5 6 6 6 6 5 5 6 6 7 7 8 9 10 11 9 6 8 3 0 4 6 6 6 6 7 8 8
10 9 8 9 8 7 6 7 5 5 5 4 3 4 4 3 2 3 5 7 7 7 7 8 9 9 8 5 6 8 5 7 6 2 2 6 5 5 5 5 6 8 9
9 8 8 7 5 6 5 5 3 3 3 4 2 2 2 2 1 0 2 3 4 6 4 4 5 4 4 3 2 3 5 5 3 2 3 6 5 5 5 6 6 8 8
9 8 6 6 4 4 4 3 3 2 3 2 2 1 1 0 1 0 0 1 2 2 2 2 2 3 3 4 4 4 4 3 2 1 2 6 6 5 5 5 6 8 9
8 7 6 5 4 3 3 1 2 2 3 2 2 0 1 0 1 1 1 1 2 1 1 2 2 3 3 4 4 4 3 3 3 1 0 3 4 5 5 5 6 8 9
7 7 6 6 5 4 3 1 1 1 1 2 2 1 1 1 1 1 1 1 2 2 2 2 3 3 3 2 4 3 3 3 2 2 1 2 4 5 4 4 5 6 7
7 7 6 6 5 4 3 2 2 1 2 2 2 2 1 1 1 1 1 1 2 2 2 2 3 3 3 3 3 4 3 2 2 2 2 1 2 3 3 3 3 4 5
8 7 5 5 6 4 3 1 1 1 1 1 2 2 2 1 1 1 1 1 2 2 1 2 2 3 3 3 2 3 2 1 2 2 1 1 1 1 2 3 3 3 3
8 7 6 5 5 4 4 3 2 2 1 1 2 2 1 1 2 1 1 1 3 2 1 3 2 2 3 3 3 2 1 1 1 1 1 1 1 1 1 3 3 3 3
8 7 6 6 5 4 3 2 2 2 1 2 2 2 2 1 2 2 1 2 3 2 1 2 3 3 3 2 4 3 2 2 1 1 1 1 0 0 0 0 2 2 2
7 7 6 6 5 3 3 2 2 2 1 2 2 2 1 1 2 2 2 2 3 2 2 3 2 4 2 2 2 3 2 2 2 1 1 1 0 0 0 0 1 1 1
8 7 6 5 5 4 2 2 2 1 1 1 2 2 1 1 2 2 3 2 2 2 2 3 2 2 3 2 2 3 2 1 1 1 1 1 0 0 0 0 1 1 1
8 7 6 5 5 3 3 2 2 2 1 1 2 2 1 1 2 2 2 2 3 2 2 2 2 2 3 3 1 1 2 2 2 1 1 0 1 0 0 0 1 1 1
8 7 6 5 5 4 3 2 2 2 2 2 1 2 1 1 1 1 1 2 3 3 2 3 3 3 3 3 2 1 1 1 2 2 2 0 0 0 0 1 1 1 1
8 7 6 5 4 4 3 2 2 1 1 2 2 2 1 1 1 1 2 2 2 2 3 3 3 3 2 3 3 3 3 2 2 2 3 1 1 1 1 0 0 0 0
8 8 7 6 5 3 3 2 1 1 1 2 1 1 1 1 1 2 2 2 2 2 2 3 3 3 2 3 3 2 2 2 2 2 2 2 2 1 1 1 1 1 1
Wind_Direction
118 123 124 122 123 124 123 124 126 124 120 116 112 107 102 96 91 90 89 89 90 90 89 86 81 76 70 63 57 56 58 61 65 74 82 86 89 90 90 91 103 107 110
120 123 123 123 125 125 124 124 126 124 122 120 117 113 108 103 99 96 95 92 92 92 91 89 84 81 77 71 65 59 57 62 71 96 112 116 122 114 100 85 79 104 116
119 125 125 123 124 124 124 124 125 125 124 123 120 117 114 111 108 105 102 99 97 95 96 95 89 81 74 70 67 59 43 15 286 235 214 188 149 139 122 105 100 108 117
123 131 126 124 124 125 124 126 127 130 129 127 125 124 122 120 116 113 109 106 104 99 97 96 91 83 75 63 50 9 303 286 276 269 250 221 154 138 138 125 118 120 125
121 120 121 126 125 126 125 126 129 133 133 132 131 130 128 124 120 117 113 111 104 98 96 98 87 85 81 32 319 295 283 281 282 273 263 239 132 146 148 141 135 134 138
125 122 125 127 126 126 126 127 129 131 133 134 135 135 133 129 125 119 119 118 114 105 99 97 92 79 304 291 286 284 284 287 289 273 263 212 134 150 149 147 149 153 156
126 124 129 128 127 127 128 129 131 131 132 135 136 135 132 131 131 133 141 137 132 137 143 202 260 271 278 283 284 283 285 289 278 278 278 180 143 152 155 157 164 169 176
126 125 128 130 131 131 133 135 137 134 134 135 142 144 148 149 151 155 161 163 164 212 240 264 273 268 267 270 278 284 287 288 284 289 291 134 149 154 156 164 174 177 184
126 128 139 141 139 137 137 140 142 140 140 142 154 160 163 169 174 176 175 184 206 236 249 259 267 271 270 267 271 277 284 287 288 283 277 143 153 152 159 169 181 186 193
126 133 141 145 148 151 149 152 154 155 156 160 171 178 182 187 192 194 190 192 212 233 246 253 261 265 267 264 263 266 274 284 274 272 283 142 151 152 162 181 194 199 202
130 136 142 144 147 155 154 152 159 163 168 177 188 200 204 210 206 199 205 188 210 229 241 249 255 260 264 258 255 258 267 262 270 266 69 142 159 162 174 192 205 211 211
141 139 137 140 148 156 149 143 165 171 166 190 193 195 212 229 233 205 177 188 211 228 238 243 250 258 257 252 244 246 254 258 267 260 139 152 163 173 188 204 215 224 221
144 139 142 139 146 149 137 149 162 170 157 184 194 195 217 251 257 153 159 186 225 231 236 239 243 249 255 259 249 230 247 265 270 282 145 156 179 188 204 220 224 231 227
142 138 135 130 134 117 118 144 149 145 145 163 146 195 204 218 321 45 322 242 244 245 250 256 252 260 267 261 256 254 259 270 292 324 152 168 188 201 215 227 234 236 233
140 138 133 130 126 105 94 109 127 126 146 142 130 142 342 70 4 352 314 308 289 283 259 260 264 282 284 290 293 293 301 303 306 320 215 182 191 212 224 236 241 242 239
140 142 136 137 126 120 121 122 114 122 124 110 108 106 29 42 359 307 294 289 305 310 301 279 277 269 266 269 279 289 294 302 309 321 279 215 212 217 223 240 245 244 243
149 141 139 143 135 139 141 154 145 152 126 114 118 115 103 50 339 301 291 308 314 297 298 295 294 284 271 270 268 277 269 272 287 287 278 263 225 221 229 235 240 246 243
147 140 144 143 136 133 132 143 114 87 100 105 103 93 78 36 360 325 330 343 303 295 304 296 307 302 300 299 296 281 282 265 271 266 276 279 261 228 218 225 238 245 249
138 141 142 136 138 148 156 150 143 137 126 123 102 88 63 36 19 352 348 351 311 318 333 318 340 310 301 302 289 275 283 276 268 282 285 299 324 101 162 199 213 225 235
143 143 147 144 142 153 154 148 150 144 144 121 103 98 81 32 15 350 339 347 323 333 343 331 319 305 295 303 302 316 305 274 248 249 260 253 250 284 139 163 192 220 195
145 147 154 153 151 157 159 171 164 152 130 116 115 102 92 56 12 343 360 347 331 348 351 329 329 318 311 316 314 307 280 259 234 220 218 234 206 60 231 182 157 134 173
156 160 160 154 153 158 158 162 168 148 150 128 97 102 79 56 17 354 20 339 346 335 341 335 341 326 319 331 316 315 300 285 315 242 166 184 159 59 285 266 101 115 114
157 157 152 147 149 149 159 156 144 144 172 123 111 113 77 57 46 16 14 350 344 331 349 323 333 327 313 306 306 314 313 326 331 299 286 110 113 113 321 3 64 82 121
154 148 143 145 149 154 161 156 164 159 144 131 132 104 96 100 73 33 27 16 354 348 347 330 8 322 310 311 311 287 273 291 286 303 303 330 289 344 299 305 58 45 52
153 147 142 138 146 149 157 165 177 140 113 96 90 110 145 162 161 81 37 26 358 352 351 344 337 332 321 319 316 312 308 300 280 272 289 300 297 256 222 249 97 128 93
149 145 142 143 141 148 154 143 141 143 112 112 108 147 195 171 140 77 48 27 357 354 344 344 331 323 321 315 303 297 302 302 308 298 291 298 286 277 243 227 214 203 190